This demonstration page uses our WeatherBlox Daily Observations layout. Learn more.

35.62664, -120.691

Hourly Observations for January 24, 2021

Temp ( °F °C ) Dew Point ( °F °C ) Humidity (%) Winds ( mph kmh ) Pressure ( in mb ) Visibility ( mi km ) Precip ( " mm )
12:53 am 00:53 Clear 32 0 29 -1.7 88 88 E 3 6 29.97 1015 10 16.0934 0 0
1:53 am 01:53 Clear 31 -0.6 28 -2.2 89 89 Calm 29.98 1015 10 16.0934 0 0
2:53 am 02:53 Partly Cloudy 30 -1.1 28 -2.2 92 92 NE 3 6 29.98 1015 10 16.0934 0 0
3:11 am 03:11 Mostly Cloudy 30 -1.1 27 -2.8 88 88 E 5 7 30.02 1016 10 16.0934 0 0
3:15 am 03:15 Mostly Cloudy 30 -1.1 27 -2.8 88 88 ESE 6 9 30.02 1016 10 16.0934 0 0
3:53 am 03:53 Cloudy 32 0 30 -1.1 92 92 SSE 5 7 29.96 1015 10 16.0934 0 0
4:53 am 04:53 Cloudy 33 0.6 31 -0.6 92 92 Calm 29.97 1015 7 11.26538 0 0
5:02 am 05:02 Cloudy with Mist and Fog 33 0.6 31 -0.6 92 92 E 3 6 30 1016 3 4.82802 0 0
5:14 am 05:14 Cloudy with Mist and Fog 34 1.1 32 0 92 92 Calm 30 1016 1.75 2.816345 0 0
5:53 am 05:53 Mostly Cloudy with Mist and Fog 34 1.1 33 0.6 97 97 Calm 29.97 1015 1 1.60934 0 0
6:04 am 06:04 Mostly Cloudy with Mist and Fog 34 1.1 33 0.6 97 97 Calm 30 1016 0.75 1.207005 0 0
6:12 am 06:12 Mostly Cloudy with Mist and Fog 34 1.1 33 0.6 97 97 Calm 30 1016 1 1.60934 0 0
6:43 am 06:43 Mostly Cloudy with Mist and Fog 35 1.7 33 0.6 93 93 Calm 30.02 1016 0.75 1.207005 0 0
6:53 am 06:53 Mostly Cloudy with Mist and Fog 35 1.7 33 0.6 93 93 E 3 6 29.98 1015 0.75 1.207005 0 0
7:15 am 07:15 Mostly Cloudy with Mist and Fog 35 1.7 34 1.1 96 96 E 5 7 30.02 1016 1 1.60934 0 0
7:29 am 07:29 Mostly Cloudy with Fog 35 1.7 33 0.6 93 93 E 5 7 30.02 1016 0.5 0.80467 0 0
7:53 am 07:53 Mostly Cloudy with Mist and Fog 35 1.7 33 0.6 93 93 E 5 7 29.99 1016 0.75 1.207005 0 0
8:26 am 08:26 Mostly Cloudy with Mist and Fog 36 2.2 34 1.1 93 93 E 5 7 30.03 1017 1 1.60934 0 0
8:53 am 08:53 Cloudy with Mist and Fog 37 2.8 35 1.7 93 93 SE 7 11 30 1016 1.75 2.816345 0 0
9:01 am 09:01 Cloudy with Mist and Fog 38 3.3 36 2.2 93 93 SSE 6 9 30.02 1017 2.5 4.02335 0 0
9:11 am 09:11 Cloudy with Mist and Fog 38 3.3 36 2.2 93 93 SSE 5 7 30.02 1017 5 8.0467 0 0
9:53 am 09:53 Cloudy 40 4.4 38 3.3 93 93 S 5 7 30.01 1016 9 14.48406 0 0
10:39 am 10:39 Cloudy 41 5 39 3.9 93 93 Calm 30.01 1016 10 16.0934 0 0
10:53 am 10:53 Cloudy 42 5.6 38 3.3 85 85 Calm 29.98 1015 10 16.0934 0 0
11:53 am 11:53 Cloudy 45 7.2 39 3.9 80 80 Calm 29.96 1015 10 16.0934 0 0
12:31 pm 12:31 Mostly Cloudy 47 8.3 40 4.4 77 77 NE 3 6 29.95 1014 10 16.0934 0 0
12:53 pm 12:53 Cloudy 48 8.9 40 4.4 74 74 ENE 3 6 29.92 1013 10 16.0934 0 0
1:53 pm 13:53 Cloudy 49 9.4 40 4.4 71 71 Calm 29.89 1012 10 16.0934 0 0
2:53 pm 14:53 Cloudy 51 10.6 40 4.4 66 66 Calm 29.88 1012 10 16.0934 0 0
3:53 pm 15:53 Cloudy 51 10.6 40 4.4 66 66 Calm 29.86 1011 10 16.0934 0 0
4:53 pm 16:53 Mostly Cloudy 52 11.1 40 4.4 64 64 Calm 29.86 1011 10 16.0934 0 0
5:53 pm 17:53 Cloudy 49 9.4 39 3.9 69 69 SSW 10 17 29.86 1011 10 16.0934 0 0
6:53 pm 18:53 Partly Cloudy 47 8.3 39 3.9 74 74 SSW 6 9 29.85 1011 10 16.0934 0 0
7:53 pm 19:53 Cloudy 47 8.3 39 3.9 74 74 SSW 6 9 29.85 1011 10 16.0934 0 0
8:53 pm 20:53 Mostly Cloudy 45 7.2 38 3.3 77 77 S 6 9 29.84 1011 10 16.0934 0 0
9:53 pm 21:53 Cloudy with Light Rain 46 7.8 42 5.6 86 86 SSW 5 7 29.83 1010 10 16.0934 0.02 0.508
10:50 pm 22:50 Cloudy with Rain 45 7 43 6 93 93 Calm 29.85 1011 4 6.43736 0.07 1.778
10:53 pm 22:53 Cloudy with Light Rain 45 7.2 43 6.1 93 93 Calm 29.83 1010 4 6.43736 0.07 1.778
11:01 pm 23:01 Cloudy with Light Rain 45 7.2 43 6.1 93 93 NW 3 6 29.84 1010 10 16.0934 0.001 0.001
11:10 pm 23:10 Cloudy 44 6.7 42 5.6 93 93 NNW 6 9 29.85 1011 10 16.0934 0.001 0.001
11:16 pm 23:16 Cloudy 44 6.7 42 5.6 93 93 NNW 6 9 29.85 1011 10 16.0934 0.001 0.001
11:23 pm 23:23 Cloudy 44 6.7 42 5.6 93 93 NW 8 13 29.85 1011 10 16.0934 0.001 0.001
11:44 pm 23:44 Cloudy with Light Rain 45 7.2 41 5 86 86 NW 10 17 29.84 1010 10 16.0934 0.01 0.254
11:53 pm 23:53 Cloudy with Light Rain 45 7.2 40 4.4 83 83 NNW 14 22 29.82 1010 10 16.0934 0.01 0.254

Powered by AerisWeather